Chicago, IL

9:54 AM CST on December 16, 2017 (GMT -0600)
Chicago-O'Hare International

Weather History for KORD - January, 2014

Change the Weather History Date:

Thursday, January 2, 2014

  Actual Average Record
Temperature  
Mean Temperature 10 °F 24 °F  
Max Temperature 21 °F 31 °F 61 °F (2004)
Min Temperature -1 °F 17 °F -16 °F (1879)
Degree Days  
Heating Degree Days 55 41  
Month to date heating degree days 104 82  
Since 1 July heating degree days 2670 2493  
Cooling Degree Days 0 0  
Month to date cooling degree days 0 0  
Year to date cooling degree days 0 0  
Moisture  
Dew Point 8 °F    
Average Humidity 71    
Maximum Humidity 80    
Minimum Humidity 61    
Precipitation  
Precipitation 0.22 in 0.07 in 1.24 in (1999)
Month to date precipitation 0.47 0.13  
Year to date precipitation 0.47 0.13  
Snow  
Snow 5.80 in 0.30 in 18.60 in (1999)
Month to date snowfall 7.9 0.6  
Since 1 July snowfall 23.0 10.2  
Snow Depth 6.00 in    
Sea Level Pressure  
Sea Level Pressure 30.22 in    
Wind  
Wind Speed 13 mph (North)    
Max Wind Speed 22 mph    
Max Gust Speed 26 mph    
Visibility 4 miles    
Events Snow    
T = Trace of Precipitation, MM = Missing Value Source: NWS Daily Summary

Daily Weather History Graph

Daily Weather History Graph

Search for Another Location

Airport or City:

Trip Planner

Search our weather history database for the weather conditions in past years. The results will help you decide how hot, cold, wet, or windy it might be!

Date:

Astronomy

Jan. 02, 2014 Rise Set
Actual Time 7:19 AM CST 4:31 PM CST
Civil Twilight 6:48 AM CST 5:03 PM CST
Nautical Twilight 6:13 AM CST 5:38 PM CST
Astronomical Twilight 5:39 AM CST 6:12 PM CST
Moon 7:58 AM CST (1/2) 6:30 PM CST (1/2)
Length of Visible Light 10h 15m
Length of Day
9h 12m
Waxing Crescent, 3% of the Moon is Illuminated
Jan 2
Waxing Crescent
Jan 7
First Quarter
Jan 15
Full
Jan 23
Last Quarter
Jan 30
New

Hourly Weather History & Observations

Time (CST) Temp. Windchill Dew Point Humidity Pressure Visibility Wind Dir Wind Speed Gust Speed Precip Events Conditions
12:51 AM 21.0 °F 7.6 °F 14.0 °F 74% 30.16 in 6.0 mi NE 15.0 mph - 0.00 in Snow Light Snow
1:18 AM 21.0 °F 8.6 °F 14.0 °F 74% 30.12 in 6.0 mi ENE 12.7 mph - 0.00 in Snow Light Snow
1:51 AM 21.0 °F 8.6 °F 14.0 °F 74% 30.16 in 7.0 mi NE 12.7 mph - 0.00 in Snow Light Snow
2:40 AM 21.0 °F 8.6 °F 14.0 °F 74% 30.12 in 4.0 mi NE 12.7 mph - 0.00 in Snow Light Snow
2:53 AM 21.0 °F 9.3 °F 14.0 °F 74% 30.12 in 3.0 mi NE 11.5 mph - 0.00 in Snow Light Snow
3:13 AM 21.0 °F 9.9 °F 15.1 °F 78% 30.10 in 2.0 mi NE 10.4 mph - 0.01 in Snow Light Snow
3:31 AM 21.0 °F 10.6 °F 16.0 °F 81% 30.10 in 2.0 mi NE 9.2 mph - 0.01 in Snow Light Snow
3:51 AM 21.0 °F 9.3 °F 16.0 °F 81% 30.13 in 1.5 mi NNE 11.5 mph - 0.01 in Snow Light Snow
4:20 AM 17.1 °F 4.3 °F 12.0 °F 81% 30.09 in 1.5 mi NNW 11.5 mph - 0.01 in Snow Light Snow
4:33 AM 17.1 °F 4.3 °F 12.0 °F 81% 30.09 in 1.2 mi NNW 11.5 mph - 0.01 in Snow Light Snow
4:51 AM 17.1 °F 4.3 °F 12.0 °F 81% 30.12 in 1.2 mi NNW 11.5 mph - 0.02 in Snow Light Snow
5:40 AM 18.0 °F 6.1 °F 12.9 °F 81% 30.10 in 1.0 mi North 10.4 mph - 0.01 in Snow Light Snow
5:51 AM 18.0 °F 6.1 °F 12.9 °F 81% 30.14 in 1.0 mi North 10.4 mph - 0.01 in Snow Light Snow
6:51 AM 17.1 °F 4.3 °F 12.0 °F 81% 30.16 in 1.0 mi North 11.5 mph - 0.02 in Snow Light Snow
7:32 AM 17.1 °F 3.6 °F 10.9 °F 77% 30.13 in 0.5 mi NNW 12.7 mph - 0.03 in Snow Snow
7:51 AM 16.0 °F 1.7 °F 10.9 °F 81% 30.17 in 0.5 mi NNW 13.8 mph - 0.05 in Snow Snow
8:25 AM 16.0 °F 2.9 °F 10.9 °F 81% 30.15 in 0.2 mi North 11.5 mph - 0.02 in Snow Heavy Snow
8:51 AM 15.1 °F 1.1 °F 10.0 °F 80% 30.19 in 0.2 mi North 12.7 mph - 0.03 in Snow Heavy Snow
9:11 AM 18.0 °F 4.2 °F 10.9 °F 74% 30.17 in 0.5 mi NNE 13.8 mph 20.7 mph 0.01 in Snow Snow
9:51 AM 19.0 °F 6.8 °F 12.0 °F 74% 30.22 in 0.8 mi NNE 11.5 mph - 0.02 in Snow Light Snow
10:41 AM 17.1 °F 5.0 °F 10.0 °F 74% 30.19 in 1.8 mi NNW 10.4 mph - 0.00 in Snow Light Snow
10:51 AM 17.1 °F 4.3 °F 9.0 °F 71% 30.22 in 1.8 mi NNW 11.5 mph - 0.02 in Snow Light Snow
11:06 AM 17.1 °F 3.0 °F 10.0 °F 74% 30.18 in 0.5 mi NNW 13.8 mph - 0.00 in Snow Snow
11:17 AM 16.0 °F 1.1 °F 9.0 °F 74% 30.18 in 2.0 mi NNW 15.0 mph - 0.00 in Snow Light Snow
11:29 AM 16.0 °F 1.7 °F 9.0 °F 74% 30.18 in 0.5 mi NNW 13.8 mph - 0.01 in Snow Snow
11:51 AM 16.0 °F 0.1 °F 9.0 °F 74% 30.22 in 0.5 mi NNW 17.3 mph - 0.01 in Snow Snow
12:51 PM 16.0 °F 1.1 °F 8.1 °F 71% 30.23 in 0.5 mi NNW 15.0 mph - 0.02 in Snow Snow
1:10 PM 16.0 °F 1.1 °F 9.0 °F 74% 30.19 in 2.5 mi North 15.0 mph - 0.00 in Snow Light Snow
1:48 PM 15.8 °F -0.2 °F 8.6 °F 73% 30.20 in 1.2 mi NNW 17.3 mph - 0.01 in Snow Light Snow
1:51 PM 16.0 °F -0.4 °F 8.1 °F 71% 30.24 in 0.5 mi NNW 18.4 mph - 0.01 in Snow Snow
2:19 PM 16.0 °F 0.6 °F 9.0 °F 74% 30.21 in 0.8 mi NNW 16.1 mph - 0.00 in Snow Light Snow
2:24 PM 16.0 °F 1.7 °F 8.1 °F 71% 30.21 in 1.0 mi NNW 13.8 mph - 0.00 in Snow Light Snow
2:39 PM 16.0 °F 0.1 °F 8.1 °F 71% 30.22 in 2.0 mi NNW 17.3 mph - 0.00 in Snow Light Snow
2:51 PM 17.1 °F 2.5 °F 8.1 °F 68% 30.26 in 5.0 mi NNW 15.0 mph - 0.00 in Snow Light Snow
3:24 PM 16.0 °F 1.7 °F 6.1 °F 65% 30.24 in 8.0 mi NNW 13.8 mph - 0.00 in Snow Blowing Snow
3:51 PM 15.1 °F -1.1 °F 3.9 °F 61% 30.29 in 8.0 mi NNW 17.3 mph - 0.00 in Snow Blowing Snow
4:51 PM 12.9 °F -1.6 °F 1.9 °F 62% 30.32 in 10.0 mi NNW 12.7 mph - N/A Snow Blowing Snow
5:51 PM 10.0 °F -6.5 °F -0.9 °F 61% 30.36 in 10.0 mi NNW 15.0 mph - N/A Snow Blowing Snow
6:51 PM 7.0 °F -10.4 °F -2.9 °F 64% 30.38 in 10.0 mi NNW 15.0 mph - N/A Snow Blowing Snow
7:51 PM 6.1 °F -12.2 °F -4.0 °F 63% 30.40 in 10.0 mi NNW 16.1 mph - N/A Snow Blowing Snow
8:51 PM 3.9 °F -13.0 °F -6.0 °F 64% 30.41 in 10.0 mi NNW 12.7 mph - N/A Snow Blowing Snow
9:51 PM 3.0 °F -12.5 °F -8.0 °F 60% 30.41 in 10.0 mi NNW 10.4 mph - N/A Snow Blowing Snow
10:51 PM 3.0 °F -13.3 °F -8.0 °F 60% 30.43 in 10.0 mi NW 11.5 mph - N/A   Clear
11:51 PM -0.9 °F -16.4 °F -11.0 °F 62% 30.43 in 10.0 mi NW 9.2 mph - N/A   Clear